Location: Dammartin
(48.9032°N, 1.6195°E)
Time: 10:49:09
(UTC+00:00)

USA 215 - Pass Details

Date: 03 February 2023
Orbit: 1102 x 1105 km, 123.0° (Epoch: 27 March)

Event Time Altitude Azimuth Distance (km) Brightness Sun altitude
Rises 18:15:20 0° 147° (SSE) 3,907 5.9 -13.6°
Reaches altitude 10° 18:17:56 10° 154° (SSE) 2,952 5.3 -14.0°
Maximum altitude 18:24:08 45° 225° (SW) 1,458 4.3 -15.0°
Drops below altitude 10° 18:30:22 10° 298° (WNW) 2,966 6.4 -16.0°
Sets 18:33:00 0° 304° (NW) 3,927 7.0 -16.5°
